Flag Weather past 2 weeks in Elbląg, Poland

Now
29 °F

Fog.


Feels Like: 24 °F
Forecast: 23 / 29 °F
Wind: 5 mph from Southeast

Location: Hel

Current Time: Nov 28, 2014 at 8:33:44 AM

Latest Report: Nov 28, 2014 at 7:00 AM


Visibility: 5 mi

Pressure: 30.32 "Hg

Humidity: 87%

Dew point: 26 °F

Location of ElblągLocation

Historic Weather in Elbląg — Graph

°F

Elbląg temperature yesterday

Maximum temperature yesterday: 40 °F (at 7:00 AM)
Minimum temperature yesterday: 35 °F (at 11:00 PM)
Average temperature yesterday: 38 °F

Past Weeks' High & Low Weather Summary

 TemperatureHumidityPressure
High48 °F (Nov 14, 11:00 AM)100% (Nov 25, 11:00 PM)30.47 "Hg (Nov 25, 11:00 PM)
Low29 °F (Nov 28, 7:00 AM)75% (Nov 18, 9:00 PM)29.90 "Hg (Nov 16, 2:00 PM)
Average41 °F90%30.20 "Hg
* Reported Nov 13 7:00 AM — Nov 28 7:00 AM, Elbląg, Weather by CustomWeather, © 2014

Note: Actual official high and low records may vary slightly from our data, if they occured in-between our weather recording intervals... More about our weather records

Advertising

Elbląg weather history for previous 24 hours

 ConditionsComfort  
Time TempWeatherWind HumidityBarometerVisibility
7:00 AM
Nov 28
29 °FFog.5 mph87%30.32 "Hg5 mi
6:00 AM29 °FFog.5 mph88%30.31 "Hg6 mi
5:00 AM30 °FFog.5 mph89%30.30 "Hg5 mi
4:00 AM31 °FFog.5 mph89%30.29 "Hg3 mi
3:00 AM32 °FLight snow. Low clouds.5 mph90%30.28 "Hg4 mi
2:00 AM33 °FFog.3 mph88%30.28 "Hg4 mi
1:00 AM33 °FOvercast.3 mph87%30.28 "Hg6 mi
12:00 AM34 °FOvercast.3 mph86%30.28 "Hg7 mi
11:00 PM
Nov 27
35 °FFog.3 mph87%30.27 "Hg6 mi
10:00 PM35 °FFog.3 mph89%30.27 "Hg4 mi
9:00 PM36 °FFog.3 mph89%30.27 "Hg4 mi
8:00 PM36 °FFog.3 mph91%30.26 "Hg3 mi
7:00 PM36 °FFog.3 mph92%30.25 "Hg2 mi
6:00 PM36 °FFog.3 mph91%30.24 "Hg3 mi
5:00 PM36 °FFog.3 mph93%30.23 "Hg2 mi
4:00 PM36 °FFog.3 mph95%30.22 "Hg2 mi
3:00 PM37 °FFog.3 mph95%30.22 "Hg2 mi
2:00 PM37 °FFog.3 mph96%30.22 "Hg2 mi
1:00 PM37 °FFog.3 mph97%30.23 "Hg2 mi
12:00 PM38 °FFog.3 mph98%30.23 "Hg1 mi
11:00 AM38 °FFog.3 mph98%30.24 "Hg1 mi
10:00 AM39 °FFog.3 mph97%30.23 "Hg1 mi
9:00 AM39 °FLow clouds.2 mph97%30.22 "Hg2 mi
8:00 AM40 °FFog.2 mph97%30.22 "Hg3 mi
Weather by CustomWeather, © 2014

See weather overviewHow to use our weather pages